METAR Formatted Surface Weather Observation
Issued by NWS

Home | Current Version | Previous Version | Text Only | Print | Product List | Glossary On
Versions: 1 2 3 4 5 6 7 8 9 10 11 12 13 14 15 16 17 18 19 20 21 22 23 24 25 26 27 28 29 30 31 32 33 34 35 36 37 38 39 40 41 42 43 44 45 46 47 48 49 50
000
SAUS44 KMRX 180558
MTRNMM
METAR KNMM 180556Z AUTO 36008KT 6SM -RA BR OVC005 11/10 A3021 RMK
AO2 RAB02 SLP240 P0002 60009 T01110100 10222 20111 402670111 51004
CHINO SOUTH VISNO SOUTH $



USA.gov is the U.S. government's official web portal to all federal, state and local government web resources and services.